| time (UTC) | temp F | wind direction | speed MPH | gust MPH | rain 1hr in | rain 24hr in | rain mn in | humidity % | barometer mb |
| 20260902052537 | 72 | 232 | 0.0 | 2.0 | 0.00 | 0.00 | 0.00 | 95 | 1015.3 |
| 20260902052035 | 72 | 0 | 0.0 | 1.0 | 0.00 | 0.00 | 0.00 | 95 | 1015.4 |
| 20260902051609 | 72 | 0 | 0.0 | 1.0 | 0.00 | 0.00 | 0.00 | 95 | 1015.4 |
| 20260902051035 | 72 | 232 | 0.0 | 1.0 | 0.00 | 0.00 | 0.00 | 95 | 1015.3 |
| 20260902050535 | 72 | 0 | 0.0 | 0.0 | 0.00 | 0.00 | 0.00 | 95 | 1015.4 |
| 20260902050101 | 72 | 0 | 0.0 | 0.0 | 0.00 | 0.00 | 0.00 | 95 | 1015.5 |
| 20260902045532 | 72 | 0 | 0.0 | 2.0 | 0.00 | 0.00 | 0.00 | 95 | 1015.5 |
| 20260902045034 | 72 | 0 | 0.0 | 2.0 | 0.00 | 0.00 | 0.00 | 95 | 1015.6 |
| 20260902044600 | 72 | 0 | 0.0 | 1.0 | 0.00 | 0.00 | 0.00 | 95 | 1015.5 |
| 20260902044036 | 72 | 0 | 0.0 | 0.0 | 0.00 | 0.00 | 0.00 | 95 | 1015.6 |
| 20260902043535 | 72 | 0 | 0.0 | 0.0 | 0.00 | 0.00 | 0.00 | 95 | 1015.5 |
| 20260902043059 | 73 | 0 | 0.0 | 0.0 | 0.00 | 0.00 | 0.00 | 95 | 1015.4 |
| 20260902042535 | 73 | 0 | 0.0 | 0.0 | 0.00 | 0.00 | 0.00 | 95 | 1015.5 |
| 20260902042033 | 73 | 0 | 0.0 | 0.0 | 0.00 | 0.00 | 0.00 | 95 | 1015.4 |
| 20260902041610 | 73 | 0 | 0.0 | 0.0 | 0.00 | 0.00 | 0.00 | 95 | 1015.5 |
| 20260902041034 | 73 | 0 | 0.0 | 1.0 | 0.00 | 0.00 | 0.00 | 95 | 1015.5 |
| 20260902040535 | 73 | 0 | 0.0 | 1.0 | 0.00 | 0.00 | 0.00 | 95 | 1015.6 |
| 20260902040104 | 73 | 232 | 1.0 | 2.0 | 0.00 | 0.00 | 0.00 | 95 | 1015.6 |
| 20260902035534 | 73 | 232 | 1.0 | 3.0 | 0.00 | 0.00 | 0.00 | 95 | 1015.7 |
| 20260902035034 | 73 | 232 | 1.0 | 3.0 | 0.00 | 0.00 | 0.00 | 95 | 1015.7 |
| 20260902034600 | 73 | 232 | 2.0 | 3.0 | 0.00 | 0.00 | 0.00 | 95 | 1015.8 |
| 20260902034033 | 73 | 315 | 1.0 | 1.0 | 0.00 | 0.00 | 0.00 | 95 | 1015.7 |
| 20260902033533 | 73 | 315 | 0.0 | 1.0 | 0.00 | 0.00 | 0.00 | 94 | 1015.8 |
| 20260902033107 | 73 | 315 | 1.0 | 2.0 | 0.00 | 0.00 | 0.00 | 94 | 1015.9 |
| 20260902032537 | 73 | 315 | 0.0 | 2.0 | 0.00 | 0.00 | 0.00 | 95 | 1016.0 |
| 20260902032035 | 73 | 0 | 0.0 | 2.0 | 0.00 | 0.00 | 0.00 | 95 | 1016.0 |
| 20260902031601 | 73 | 0 | 0.0 | 0.0 | 0.00 | 0.00 | 0.00 | 95 | 1016.0 |
| 20260902031035 | 73 | 0 | 0.0 | 0.0 | 0.00 | 0.00 | 0.00 | 95 | 1016.1 |
| 20260902030535 | 74 | 0 | 0.0 | 1.0 | 0.00 | 0.00 | 0.00 | 95 | 1016.1 |
| 20260902030057 | 74 | 0 | 0.0 | 1.0 | 0.00 | 0.00 | 0.00 | 95 | 1016.2 |
| 20260902025536 | 73 | 315 | 1.0 | 2.0 | 0.00 | 0.00 | 0.00 | 94 | 1016.2 |
| 20260902025035 | 74 | 315 | 0.0 | 2.0 | 0.00 | 0.00 | 0.00 | 95 | 1016.3 |
| 20260902024557 | 74 | 315 | 0.0 | 2.0 | 0.00 | 0.00 | 0.00 | 95 | 1016.3 |
| 20260902024035 | 74 | 0 | 1.0 | 2.0 | 0.00 | 0.00 | 0.00 | 95 | 1016.3 |
| 20260902023536 | 74 | 237 | 0.0 | 1.0 | 0.00 | 0.00 | 0.00 | 95 | 1016.3 |
| 20260902023052 | 74 | 237 | 1.0 | 1.0 | 0.00 | 0.00 | 0.00 | 95 | 1016.1 |
| 20260902022534 | 74 | 238 | 1.0 | 2.0 | 0.00 | 0.00 | 0.00 | 94 | 1016.1 |
| 20260902022034 | 74 | 237 | 0.0 | 2.0 | 0.00 | 0.00 | 0.00 | 94 | 1016.1 |
| 20260902021601 | 74 | 237 | 0.0 | 2.0 | 0.00 | 0.00 | 0.00 | 95 | 1016.2 |
| 20260902021036 | 74 | 237 | 0.0 | 0.0 | 0.00 | 0.00 | 0.00 | 95 | 1016.1 |
| 20260902020535 | 74 | 0 | 0.0 | 2.0 | 0.00 | 0.00 | 0.00 | 94 | 1016.0 |
| 20260902015534 | 74 | 0 | 0.0 | 2.0 | 0.00 | 0.00 | 0.00 | 94 | 1016.1 |
| 20260902015127 | 74 | 0 | 0.0 | 2.0 | 0.00 | 0.00 | 0.00 | 94 | 1016.1 |
| 20260902014555 | 74 | 0 | 0.0 | 2.0 | 0.00 | 0.00 | 0.00 | 94 | 1016.0 |
| 20260902014038 | 74 | 238 | 0.0 | 1.0 | 0.00 | 0.00 | 0.00 | 94 | 1015.9 |
| 20260902013537 | 75 | 237 | 1.0 | 2.0 | 0.00 | 0.00 | 0.00 | 94 | 1015.9 |
| 20260902013102 | 75 | 237 | 0.0 | 2.0 | 0.00 | 0.00 | 0.00 | 94 | 1015.8 |
| 20260902012535 | 75 | 0 | 0.0 | 2.0 | 0.00 | 0.00 | 0.00 | 94 | 1015.8 |
| 20260902012035 | 75 | 0 | 0.0 | 2.0 | 0.00 | 0.00 | 0.00 | 94 | 1015.9 |
| 20260902011557 | 75 | 0 | 0.0 | 2.0 | 0.00 | 0.00 | 0.00 | 94 | 1015.7 |
| 20260902011035 | 75 | 237 | 1.0 | 2.0 | 0.00 | 0.00 | 0.00 | 94 | 1015.6 |
| 20260902010534 | 75 | 238 | 1.0 | 2.0 | 0.00 | 0.00 | 0.00 | 94 | 1015.7 |
| 20260902010055 | 75 | 238 | 0.0 | 2.0 | 0.00 | 0.00 | 0.00 | 93 | 1015.7 |
| 20260902005534 | 75 | 0 | 0.0 | 2.0 | 0.00 | 0.00 | 0.00 | 93 | 1015.6 |
| 20260902005037 | 76 | 238 | 0.0 | 2.0 | 0.00 | 0.00 | 0.00 | 93 | 1015.5 |
| 20260902004555 | 76 | 0 | 0.0 | 1.0 | 0.00 | 0.00 | 0.00 | 93 | 1015.5 |
| 20260902004032 | 76 | 0 | 0.0 | 2.0 | 0.00 | 0.00 | 0.00 | 93 | 1015.6 |
| 20260902003534 | 76 | 238 | 1.0 | 2.0 | 0.00 | 0.00 | 0.00 | 93 | 1015.7 |
| 20260902003100 | 76 | 0 | 0.0 | 0.0 | 0.00 | 0.00 | 0.00 | 92 | 1015.6 |
| 20260902002538 | 76 | 0 | 0.0 | 1.0 | 0.00 | 0.00 | 0.00 | 92 | 1015.6 |
| 20260902002036 | 76 | 0 | 0.0 | 1.0 | 0.00 | 0.00 | 0.00 | 92 | 1015.6 |
| 20260902001559 | 76 | 238 | 0.0 | 1.0 | 0.00 | 0.00 | 0.00 | 92 | 1015.6 |
| 20260902001038 | 76 | 238 | 0.0 | 1.0 | 0.00 | 0.00 | 0.00 | 92 | 1015.6 |
| 20260902000534 | 77 | 0 | 0.0 | 2.0 | 0.00 | 0.00 | 0.00 | 92 | 1015.6 |
| 20260902000119 | 77 | 0 | 0.0 | 2.0 | 0.00 | 0.00 | 0.00 | 92 | 1015.6 |
| 20260901235535 | 77 | 0 | 0.0 | 2.0 | 0.00 | 0.00 | 0.00 | 92 | 1015.6 |
| 20260901235035 | 77 | 0 | 0.0 | 2.0 | 0.00 | 0.00 | 0.00 | 92 | 1015.7 |
| 20260901234553 | 77 | 0 | 0.0 | 2.0 | 0.00 | 0.00 | 0.00 | 92 | 1015.6 |
| 20260901234034 | 77 | 0 | 0.0 | 2.0 | 0.00 | 0.00 | 0.00 | 92 | 1015.5 |
| 20260901233535 | 77 | 0 | 0.0 | 2.0 | 0.00 | 0.00 | 0.00 | 91 | 1015.5 |
| 20260901233102 | 77 | 222 | 0.0 | 2.0 | 0.00 | 0.00 | 0.00 | 91 | 1015.5 |
| 20260901232535 | 77 | 0 | 0.0 | 2.0 | 0.00 | 0.00 | 0.00 | 91 | 1015.6 |
| 20260901232038 | 77 | 222 | 0.0 | 2.0 | 0.00 | 0.00 | 0.00 | 91 | 1015.6 |
| 20260901231602 | 77 | 0 | 0.0 | 2.0 | 0.00 | 0.00 | 0.00 | 91 | 1015.5 |
| 20260901231034 | 77 | 222 | 0.0 | 3.0 | 0.00 | 0.00 | 0.00 | 91 | 1015.5 |
| 20260901230535 | 78 | 222 | 2.0 | 3.0 | 0.00 | 0.00 | 0.00 | 91 | 1015.5 |
| 20260901230114 | 78 | 222 | 2.0 | 3.0 | 0.00 | 0.00 | 0.00 | 90 | 1015.5 |
| 20260901225535 | 78 | 213 | 0.0 | 4.0 | 0.00 | 0.00 | 0.00 | 90 | 1015.4 |
| 20260901225034 | 78 | 286 | 1.0 | 4.0 | 0.00 | 0.00 | 0.00 | 90 | 1015.3 |
| 20260901224556 | 78 | 279 | 2.0 | 3.0 | 0.00 | 0.00 | 0.00 | 89 | 1015.3 |
| 20260901224035 | 79 | 300 | 1.0 | 3.0 | 0.00 | 0.00 | 0.00 | 89 | 1015.2 |
| 20260901223535 | 79 | 300 | 1.0 | 4.0 | 0.00 | 0.00 | 0.00 | 88 | 1015.2 |
| 20260901223059 | 80 | 301 | 3.0 | 4.0 | 0.00 | 0.00 | 0.00 | 87 | 1015.2 |
| 20260901222534 | 81 | 295 | 1.0 | 3.0 | 0.00 | 0.00 | 0.00 | 85 | 1015.2 |
| 20260901222032 | 81 | 71 | 1.0 | 3.0 | 0.00 | 0.00 | 0.00 | 81 | 1015.2 |
| 20260901221610 | 81 | 45 | 1.0 | 4.0 | 0.00 | 0.00 | 0.00 | 81 | 1015.1 |
| 20260901221036 | 81 | 41 | 2.0 | 4.0 | 0.00 | 0.00 | 0.00 | 81 | 1015.0 |
| 20260901220533 | 81 | 53 | 2.0 | 4.0 | 0.00 | 0.00 | 0.00 | 82 | 1015.1 |
| 20260901220130 | 81 | 34 | 2.0 | 3.0 | 0.00 | 0.00 | 0.00 | 84 | 1015.1 |
| 20260901215534 | 81 | 0 | 0.0 | 2.0 | 0.00 | 0.00 | 0.00 | 83 | 1015.1 |
| 20260901215036 | 81 | 67 | 1.0 | 2.0 | 0.00 | 0.00 | 0.00 | 83 | 1015.1 |
| 20260901214552 | 81 | 0 | 0.0 | 2.0 | 0.00 | 0.00 | 0.00 | 85 | 1015.1 |
| 20260901214035 | 81 | 0 | 0.0 | 3.0 | 0.00 | 0.00 | 0.00 | 86 | 1015.1 |
| 20260901213535 | 80 | 67 | 1.0 | 4.0 | 0.00 | 0.00 | 0.00 | 83 | 1014.9 |
| 20260901213113 | 80 | 77 | 2.0 | 7.0 | 0.00 | 0.00 | 0.00 | 84 | 1014.8 |
| 20260901212535 | 80 | 78 | 3.0 | 7.0 | 0.00 | 0.00 | 0.00 | 84 | 1014.7 |
| 20260901212035 | 80 | 59 | 2.0 | 7.0 | 0.00 | 0.00 | 0.00 | 84 | 1014.6 |
| 20260901211603 | 80 | 80 | 4.0 | 7.0 | 0.00 | 0.00 | 0.00 | 84 | 1014.4 |
| 20260901211036 | 80 | 59 | 3.0 | 5.0 | 0.00 | 0.00 | 0.00 | 84 | 1014.5 |
| 20260901210533 | 80 | 51 | 2.0 | 4.0 | 0.00 | 0.00 | 0.00 | 85 | 1014.5 |
| 20260901210104 | 80 | 327 | 1.0 | 2.0 | 0.00 | 0.00 | 0.00 | 88 | 1014.6 |
| 20260901205536 | 80 | 296 | 0.0 | 2.0 | 0.00 | 0.00 | 0.00 | 88 | 1014.7 |
| 20260901205038 | 80 | 0 | 1.0 | 2.0 | 0.00 | 0.00 | 0.00 | 87 | 1014.7 |
| 20260901204614 | 80 | 289 | 1.0 | 4.0 | 0.00 | 0.00 | 0.00 | 86 | 1014.9 |
| 20260901204037 | 80 | 289 | 0.0 | 4.0 | 0.00 | 0.00 | 0.00 | 85 | 1015.0 |
| 20260901203536 | 81 | 289 | 2.0 | 4.0 | 0.00 | 0.00 | 0.00 | 85 | 1015.1 |
| 20260901203109 | 81 | 0 | 0.0 | 2.0 | 0.00 | 0.00 | 0.00 | 86 | 1015.2 |
| 20260901202534 | 81 | 177 | 1.0 | 2.0 | 0.00 | 0.00 | 0.00 | 85 | 1015.0 |
| 20260901202041 | 81 | 177 | 1.0 | 2.0 | 0.00 | 0.00 | 0.00 | 85 | 1014.8 |
| 20260901201558 | 81 | 177 | 1.0 | 2.0 | 0.00 | 0.00 | 0.00 | 85 | 1014.7 |
| 20260901201035 | 81 | 177 | 1.0 | 2.0 | 0.00 | 0.00 | 0.00 | 85 | 1014.7 |
| 20260901200535 | 81 | 207 | 1.0 | 3.0 | 0.00 | 0.00 | 0.00 | 85 | 1014.7 |
| 20260901200058 | 81 | 207 | 2.0 | 3.0 | 0.00 | 0.00 | 0.00 | 85 | 1014.8 |
| 20260901195535 | 81 | 182 | 1.0 | 6.0 | 0.00 | 0.00 | 0.00 | 84 | 1014.9 |
| 20260901195036 | 81 | 181 | 1.0 | 6.0 | 0.00 | 0.00 | 0.00 | 84 | 1015.0 |
| 20260901194555 | 81 | 180 | 3.0 | 7.0 | 0.00 | 0.00 | 0.00 | 84 | 1015.1 |
| 20260901194035 | 81 | 161 | 3.0 | 7.0 | 0.00 | 0.00 | 0.00 | 84 | 1015.3 |
| 20260901193535 | 82 | 144 | 4.0 | 7.0 | 0.00 | 0.00 | 0.00 | 82 | 1015.4 |
| 20260901193119 | 82 | 202 | 2.0 | 3.0 | 0.00 | 0.00 | 0.00 | 83 | 1015.4 |
| 20260901192541 | 82 | 154 | 2.0 | 4.0 | 0.00 | 0.00 | 0.00 | 83 | 1015.4 |
| 20260901192040 | 82 | 171 | 2.0 | 7.0 | 0.00 | 0.00 | 0.00 | 82 | 1015.3 |
| 20260901191556 | 82 | 173 | 3.0 | 7.0 | 0.00 | 0.00 | 0.00 | 81 | 1015.2 |
| 20260901191034 | 83 | 144 | 2.0 | 4.0 | 0.00 | 0.00 | 0.00 | 81 | 1015.2 |
| 20260901190534 | 83 | 103 | 2.0 | 4.0 | 0.00 | 0.00 | 0.00 | 80 | 1015.2 |
| 20260901185535 | 83 | 140 | 2.0 | 4.0 | 0.00 | 0.01 | 0.00 | 79 | 1015.4 |
| 20260901185035 | 83 | 138 | 1.0 | 4.0 | 0.00 | 0.01 | 0.00 | 79 | 1015.6 |
| 20260901184551 | 83 | 150 | 2.0 | 4.0 | 0.00 | 0.01 | 0.00 | 78 | 1015.6 |
| 20260901184034 | 83 | 161 | 1.0 | 4.0 | 0.00 | 0.01 | 0.00 | 79 | 1015.6 |
| 20260901183534 | 83 | 155 | 1.0 | 4.0 | 0.00 | 0.01 | 0.00 | 78 | 1015.8 |
| 20260901183101 | 83 | 108 | 2.0 | 7.0 | 0.00 | 0.01 | 0.00 | 76 | 1015.8 |
| 20260901182534 | 83 | 130 | 3.0 | 8.0 | 0.00 | 0.01 | 0.00 | 76 | 1015.7 |
| 20260901182035 | 84 | 78 | 4.0 | 8.0 | 0.00 | 0.01 | 0.00 | 75 | 1015.7 |
| 20260901181602 | 84 | 109 | 5.0 | 8.0 | 0.00 | 0.01 | 0.00 | 74 | 1015.9 |
| 20260901181037 | 85 | 128 | 4.0 | 10.0 | 0.00 | 0.01 | 0.00 | 72 | 1015.8 |
| 20260901180534 | 86 | 88 | 4.0 | 10.0 | 0.00 | 0.01 | 0.00 | 69 | 1015.9 |
| 20260901180100 | 86 | 90 | 6.0 | 11.0 | 0.00 | 0.01 | 0.00 | 68 | 1016.0 |
| 20260901175536 | 86 | 63 | 6.0 | 12.0 | 0.00 | 0.06 | 0.00 | 70 | 1016.1 |
| 20260901175035 | 86 | 83 | 8.0 | 13.0 | 0.00 | 0.06 | 0.00 | 69 | 1016.1 |
| 20260901174603 | 87 | 88 | 8.0 | 13.0 | 0.00 | 0.06 | 0.00 | 68 | 1016.0 |
| 20260901174035 | 87 | 36 | 7.0 | 13.0 | 0.00 | 0.06 | 0.00 | 67 | 1015.9 |
| 20260901173538 | 86 | 77 | 9.0 | 13.0 | 0.00 | 0.06 | 0.00 | 69 | 1015.9 |
| 20260901173106 | 86 | 121 | 8.0 | 14.0 | 0.00 | 0.06 | 0.00 | 70 | 1015.9 |
| 20260901172535 | 86 | 45 | 9.0 | 14.0 | 0.00 | 0.06 | 0.00 | 69 | 1016.0 |
| 20260901172035 | 86 | 98 | 8.0 | 14.0 | 0.00 | 0.06 | 0.00 | 72 | 1016.2 |
| 20260901171601 | 85 | 75 | 9.0 | 14.0 | 0.00 | 0.06 | 0.00 | 72 | 1016.3 |
| 20260901171036 | 85 | 52 | 10.0 | 14.0 | 0.00 | 0.06 | 0.00 | 72 | 1016.4 |
| 20260901170535 | 86 | 54 | 9.0 | 13.0 | 0.00 | 0.06 | 0.00 | 72 | 1016.3 |
| 20260901170106 | 86 | 52 | 7.0 | 13.0 | 0.00 | 0.06 | 0.00 | 71 | 1016.2 |
| 20260901165535 | 86 | 51 | 4.0 | 10.0 | 0.00 | 0.20 | 0.00 | 71 | 1016.3 |
| 20260901165032 | 86 | 28 | 4.0 | 12.0 | 0.00 | 0.20 | 0.00 | 71 | 1016.4 |
| 20260901164600 | 85 | 41 | 4.0 | 12.0 | 0.00 | 0.20 | 0.00 | 73 | 1016.4 |
| 20260901164036 | 85 | 342 | 5.0 | 12.0 | 0.00 | 0.20 | 0.00 | 72 | 1016.4 |
| 20260901163535 | 85 | 11 | 6.0 | 10.0 | 0.00 | 0.20 | 0.00 | 73 | 1016.5 |
| 20260901163059 | 85 | 24 | 3.0 | 6.0 | 0.00 | 0.20 | 0.00 | 71 | 1016.5 |
| 20260901162536 | 85 | 35 | 3.0 | 6.0 | 0.00 | 0.20 | 0.00 | 73 | 1016.4 |
| 20260901162034 | 85 | 350 | 2.0 | 6.0 | 0.00 | 0.20 | 0.00 | 74 | 1016.5 |
| 20260901161557 | 85 | 352 | 3.0 | 6.0 | 0.00 | 0.20 | 0.00 | 74 | 1016.6 |
| 20260901161035 | 86 | 61 | 3.0 | 5.0 | 0.00 | 0.20 | 0.00 | 73 | 1016.5 |
| 20260901160534 | 86 | 30 | 3.0 | 6.0 | 0.00 | 0.20 | 0.00 | 71 | 1016.6 |
| 20260901160106 | 86 | 76 | 2.0 | 6.0 | 0.00 | 0.20 | 0.00 | 70 | 1016.7 |
| 20260901155534 | 86 | 61 | 4.0 | 9.0 | 0.00 | 0.57 | 0.00 | 69 | 1016.8 |
| 20260901155036 | 86 | 19 | 4.0 | 9.0 | 0.00 | 0.57 | 0.00 | 68 | 1016.8 |
| 20260901154606 | 87 | 33 | 3.0 | 9.0 | 0.00 | 0.57 | 0.00 | 70 | 1016.8 |
| 20260901154039 | 87 | 90 | 4.0 | 8.0 | 0.00 | 0.57 | 0.00 | 69 | 1016.9 |
| 20260901153536 | 86 | 38 | 4.0 | 8.0 | 0.00 | 0.57 | 0.00 | 69 | 1017.0 |
| 20260901153057 | 86 | 39 | 4.0 | 10.0 | 0.00 | 0.57 | 0.00 | 73 | 1017.0 |
| 20260901152535 | 86 | 20 | 5.0 | 10.0 | 0.00 | 0.57 | 0.00 | 73 | 1017.0 |
| 20260901152035 | 85 | 46 | 4.0 | 8.0 | 0.00 | 0.57 | 0.00 | 73 | 1016.9 |
| 20260901151615 | 85 | 53 | 4.0 | 9.0 | 0.00 | 0.57 | 0.00 | 76 | 1017.0 |
| 20260901151035 | 85 | 63 | 4.0 | 9.0 | 0.00 | 0.57 | 0.00 | 74 | 1017.0 |
| 20260901150534 | 85 | 44 | 2.0 | 8.0 | 0.00 | 0.57 | 0.00 | 73 | 1017.0 |
| 20260901150113 | 85 | 9 | 2.0 | 8.0 | 0.00 | 0.57 | 0.00 | 72 | 1016.9 |
| 20260901145534 | 84 | 360 | 3.0 | 8.0 | 0.00 | 0.57 | 0.00 | 77 | 1016.8 |
| 20260901145036 | 83 | 42 | 4.0 | 6.0 | 0.00 | 0.57 | 0.00 | 77 | 1017.0 |
| 20260901144607 | 83 | 5 | 2.0 | 4.0 | 0.00 | 0.57 | 0.00 | 78 | 1016.9 |
| 20260901144038 | 83 | 28 | 2.0 | 4.0 | 0.00 | 0.57 | 0.00 | 79 | 1016.8 |
| 20260901143535 | 82 | 29 | 2.0 | 4.0 | 0.00 | 0.57 | 0.00 | 79 | 1017.0 |
| 20260901143107 | 82 | 5 | 2.0 | 6.0 | 0.00 | 0.57 | 0.00 | 80 | 1016.9 |
| 20260901142534 | 82 | 38 | 1.0 | 7.0 | 0.00 | 0.57 | 0.00 | 81 | 1016.8 |
| 20260901142035 | 82 | 23 | 3.0 | 8.0 | 0.00 | 0.57 | 0.00 | 81 | 1016.7 |
| 20260901141605 | 82 | 57 | 4.0 | 8.0 | 0.00 | 0.57 | 0.00 | 81 | 1016.7 |
| 20260901141036 | 83 | 82 | 3.0 | 6.0 | 0.00 | 0.57 | 0.00 | 81 | 1016.7 |
| 20260901140535 | 82 | 90 | 2.0 | 6.0 | 0.00 | 0.57 | 0.00 | 83 | 1016.7 |
| 20260901140107 | 82 | 27 | 3.0 | 6.0 | 0.00 | 0.57 | 0.00 | 82 | 1016.6 |
| 20260901135534 | 83 | 39 | 2.0 | 7.0 | 0.00 | 0.57 | 0.00 | 82 | 1016.7 |
| 20260901135036 | 83 | 72 | 4.0 | 7.0 | 0.00 | 0.57 | 0.00 | 81 | 1016.7 |
| 20260901134615 | 83 | 45 | 4.0 | 7.0 | 0.00 | 0.57 | 0.00 | 81 | 1016.6 |
| 20260901134034 | 82 | 57 | 3.0 | 5.0 | 0.00 | 0.57 | 0.00 | 84 | 1016.5 |
| 20260901133535 | 82 | 360 | 2.0 | 5.0 | 0.00 | 0.57 | 0.00 | 85 | 1016.5 |
| 20260901133100 | 81 | 33 | 3.0 | 6.0 | 0.00 | 0.57 | 0.00 | 86 | 1016.5 |
| 20260901132535 | 81 | 51 | 3.0 | 6.0 | 0.00 | 0.57 | 0.00 | 85 | 1016.5 |
| 20260901132038 | 81 | 65 | 3.0 | 5.0 | 0.00 | 0.57 | 0.00 | 85 | 1016.4 |
| 20260901131555 | 81 | 360 | 2.0 | 4.0 | 0.00 | 0.57 | 0.00 | 87 | 1016.5 |
| 20260901131038 | 81 | 54 | 2.0 | 3.0 | 0.00 | 0.57 | 0.00 | 86 | 1016.6 |
| 20260901130534 | 80 | 352 | 2.0 | 3.0 | 0.00 | 0.57 | 0.00 | 88 | 1016.6 |
| 20260901130108 | 80 | 360 | 2.0 | 3.0 | 0.00 | 0.57 | 0.00 | 88 | 1016.6 |
| 20260901125536 | 79 | 29 | 2.0 | 3.0 | 0.00 | 0.57 | 0.00 | 90 | 1016.5 |
| 20260901125033 | 79 | 9 | 2.0 | 3.0 | 0.00 | 0.57 | 0.00 | 90 | 1016.5 |
| 20260901124555 | 78 | 13 | 2.0 | 3.0 | 0.00 | 0.57 | 0.00 | 92 | 1016.5 |
| 20260901124037 | 78 | 27 | 1.0 | 3.0 | 0.00 | 0.57 | 0.00 | 92 | 1016.5 |
| 20260901123534 | 77 | 11 | 1.0 | 3.0 | 0.00 | 0.57 | 0.00 | 94 | 1016.4 |
| 20260901123056 | 77 | 19 | 2.0 | 3.0 | 0.00 | 0.57 | 0.00 | 95 | 1016.3 |
| 20260901122535 | 76 | 351 | 1.0 | 3.0 | 0.00 | 0.57 | 0.00 | 96 | 1016.4 |
| 20260901122036 | 76 | 11 | 2.0 | 3.0 | 0.00 | 0.57 | 0.00 | 96 | 1016.3 |
| 20260901121606 | 75 | 360 | 1.0 | 2.0 | 0.00 | 0.57 | 0.00 | 96 | 1016.3 |
| 20260901121034 | 75 | 360 | 1.0 | 2.0 | 0.00 | 0.57 | 0.00 | 96 | 1016.2 |
| 20260901120534 | 75 | 360 | 1.0 | 1.0 | 0.00 | 0.57 | 0.00 | 96 | 1016.3 |
| 20260901120106 | 74 | 360 | 0.0 | 1.0 | 0.00 | 0.57 | 0.00 | 96 | 1016.2 |
| 20260901115535 | 74 | 0 | 0.0 | 0.0 | 0.00 | 0.57 | 0.00 | 96 | 1016.1 |
| 20260901115035 | 73 | 0 | 0.0 | 0.0 | 0.00 | 0.57 | 0.00 | 96 | 1016.0 |
| 20260901114559 | 72 | 0 | 0.0 | 2.0 | 0.00 | 0.57 | 0.00 | 96 | 1016.0 |
| 20260901114034 | 72 | 0 | 0.0 | 2.0 | 0.00 | 0.57 | 0.00 | 96 | 1015.9 |
| 20260901113535 | 71 | 0 | 0.0 | 2.0 | 0.00 | 0.57 | 0.00 | 96 | 1015.8 |
| 20260901113100 | 71 | 360 | 0.0 | 2.0 | 0.00 | 0.57 | 0.00 | 96 | 1015.7 |
| 20260901112537 | 71 | 0 | 0.0 | 2.0 | 0.00 | 0.57 | 0.00 | 96 | 1015.7 |
| 20260901112034 | 71 | 360 | 0.0 | 2.0 | 0.00 | 0.57 | 0.00 | 96 | 1015.5 |
| 20260901111558 | 71 | 360 | 0.0 | 2.0 | 0.00 | 0.57 | 0.00 | 96 | 1015.5 |
| 20260901111035 | 70 | 360 | 1.0 | 1.0 | 0.00 | 0.57 | 0.00 | 95 | 1015.5 |
| 20260901110534 | 71 | 360 | 1.0 | 2.0 | 0.00 | 0.57 | 0.00 | 95 | 1015.6 |
| 20260901110055 | 71 | 360 | 1.0 | 2.0 | 0.00 | 0.57 | 0.00 | 96 | 1015.5 |
| 20260901105534 | 71 | 0 | 0.0 | 2.0 | 0.00 | 0.57 | 0.00 | 96 | 1015.5 |
| 20260901105036 | 71 | 360 | 0.0 | 2.0 | 0.00 | 0.57 | 0.00 | 96 | 1015.4 |
| 20260901104559 | 71 | 0 | 0.0 | 0.0 | 0.00 | 0.57 | 0.00 | 96 | 1015.4 |
| 20260901104037 | 71 | 0 | 0.0 | 0.0 | 0.00 | 0.57 | 0.00 | 96 | 1015.4 |
| 20260901103535 | 71 | 0 | 0.0 | 1.0 | 0.00 | 0.57 | 0.00 | 96 | 1015.4 |
| 20260901103056 | 71 | 0 | 0.0 | 1.0 | 0.00 | 0.57 | 0.00 | 96 | 1015.3 |
| 20260901102536 | 71 | 360 | 1.0 | 2.0 | 0.00 | 0.57 | 0.00 | 96 | 1015.3 |
| 20260901102033 | 71 | 360 | 0.0 | 2.0 | 0.00 | 0.57 | 0.00 | 96 | 1015.3 |
| 20260901101601 | 71 | 0 | 0.0 | 2.0 | 0.00 | 0.57 | 0.00 | 95 | 1015.4 |
| 20260901101038 | 71 | 0 | 0.0 | 2.0 | 0.00 | 0.57 | 0.00 | 95 | 1015.3 |
| 20260901100536 | 71 | 360 | 0.0 | 2.0 | 0.00 | 0.57 | 0.00 | 95 | 1015.3 |
| 20260901100059 | 71 | 360 | 0.0 | 2.0 | 0.00 | 0.57 | 0.00 | 95 | 1015.3 |
| 20260901095534 | 72 | 360 | 0.0 | 2.0 | 0.00 | 0.57 | 0.00 | 96 | 1015.2 |
| 20260901095034 | 72 | 0 | 0.0 | 2.0 | 0.00 | 0.57 | 0.00 | 96 | 1015.3 |
| 20260901094554 | 72 | 0 | 0.0 | 0.0 | 0.00 | 0.57 | 0.00 | 96 | 1015.3 |
| 20260901094038 | 72 | 0 | 0.0 | 0.0 | 0.00 | 0.57 | 0.00 | 96 | 1015.4 |
| 20260901093539 | 72 | 0 | 0.0 | 1.0 | 0.00 | 0.57 | 0.00 | 96 | 1015.4 |
| 20260901093103 | 72 | 0 | 0.0 | 1.0 | 0.00 | 0.57 | 0.00 | 96 | 1015.3 |
| 20260901092536 | 72 | 0 | 0.0 | 1.0 | 0.00 | 0.57 | 0.00 | 96 | 1015.2 |
| 20260901092035 | 72 | 0 | 0.0 | 0.0 | 0.00 | 0.57 | 0.00 | 96 | 1015.2 |
| 20260901091600 | 72 | 0 | 0.0 | 0.0 | 0.00 | 0.57 | 0.00 | 96 | 1015.2 |
| 20260901091034 | 72 | 0 | 0.0 | 2.0 | 0.00 | 0.57 | 0.00 | 96 | 1015.1 |
| 20260901090536 | 72 | 0 | 0.0 | 2.0 | 0.00 | 0.57 | 0.00 | 96 | 1015.1 |
| 20260901090106 | 72 | 0 | 0.0 | 2.0 | 0.00 | 0.57 | 0.00 | 95 | 1015.2 |
| 20260901085533 | 72 | 360 | 0.0 | 2.0 | 0.00 | 0.57 | 0.00 | 96 | 1015.1 |
| 20260901085034 | 72 | 360 | 0.0 | 2.0 | 0.00 | 0.57 | 0.00 | 96 | 1015.1 |
| 20260901084555 | 72 | 360 | 0.0 | 2.0 | 0.00 | 0.57 | 0.00 | 96 | 1015.1 |
| 20260901084034 | 72 | 0 | 0.0 | 2.0 | 0.00 | 0.57 | 0.00 | 95 | 1015.1 |
| 20260901083537 | 72 | 360 | 1.0 | 1.0 | 0.00 | 0.57 | 0.00 | 95 | 1015.1 |
| 20260901083104 | 72 | 360 | 0.0 | 1.0 | 0.00 | 0.57 | 0.00 | 95 | 1015.0 |
| 20260901082534 | 72 | 0 | 0.0 | 0.0 | 0.00 | 0.57 | 0.00 | 96 | 1015.1 |
| 20260901082037 | 72 | 0 | 0.0 | 0.0 | 0.00 | 0.57 | 0.00 | 95 | 1015.1 |
| 20260901081600 | 72 | 0 | 0.0 | 2.0 | 0.00 | 0.57 | 0.00 | 96 | 1015.1 |
| 20260901081035 | 72 | 0 | 0.0 | 2.0 | 0.00 | 0.57 | 0.00 | 95 | 1015.1 |
| 20260901080532 | 73 | 0 | 0.0 | 2.0 | 0.00 | 0.57 | 0.00 | 96 | 1015.2 |
| 20260901075538 | 73 | 360 | 0.0 | 1.0 | 0.00 | 0.57 | 0.00 | 96 | 1015.3 |
| 20260901075036 | 72 | 360 | 1.0 | 1.0 | 0.00 | 0.57 | 0.00 | 96 | 1015.2 |
| 20260901074554 | 72 | 360 | 1.0 | 1.0 | 0.00 | 0.57 | 0.00 | 95 | 1015.3 |
| 20260901074033 | 72 | 360 | 1.0 | 2.0 | 0.00 | 0.57 | 0.00 | 95 | 1015.3 |
| 20260901073534 | 72 | 360 | 0.0 | 2.0 | 0.00 | 0.57 | 0.00 | 95 | 1015.4 |
| 20260901073101 | 72 | 0 | 0.0 | 2.0 | 0.00 | 0.57 | 0.00 | 95 | 1015.4 |
| 20260901072536 | 72 | 360 | 0.0 | 2.0 | 0.00 | 0.57 | 0.00 | 95 | 1015.4 |
| 20260901072035 | 73 | 0 | 0.0 | 1.0 | 0.00 | 0.57 | 0.00 | 95 | 1015.5 |
| 20260901071556 | 73 | 360 | 0.0 | 1.0 | 0.00 | 0.57 | 0.00 | 95 | 1015.6 |
| 20260901071036 | 73 | 360 | 1.0 | 2.0 | 0.00 | 0.57 | 0.00 | 95 | 1015.6 |
| 20260901070537 | 73 | 360 | 1.0 | 3.0 | 0.00 | 0.57 | 0.00 | 96 | 1015.6 |
| 20260901070107 | 73 | 360 | 1.0 | 5.0 | 0.00 | 0.57 | 0.00 | 95 | 1015.6 |
| 20260901065536 | 73 | 360 | 3.0 | 5.0 | 0.00 | 0.57 | 0.00 | 96 | 1015.6 |
| 20260901065037 | 73 | 12 | 1.0 | 3.0 | 0.00 | 0.57 | 0.00 | 96 | 1015.7 |
| 20260901064601 | 73 | 39 | 1.0 | 2.0 | 0.00 | 0.57 | 0.00 | 96 | 1015.8 |
| 20260901064035 | 73 | 39 | 1.0 | 2.0 | 0.00 | 0.57 | 0.00 | 96 | 1015.8 |
| 20260901063534 | 73 | 15 | 1.0 | 2.0 | 0.00 | 0.57 | 0.00 | 96 | 1015.8 |
| 20260901063059 | 73 | 352 | 1.0 | 3.0 | 0.00 | 0.57 | 0.00 | 96 | 1015.8 |
| 20260901062549 | 73 | 352 | 1.0 | 3.0 | 0.00 | 0.57 | 0.00 | 96 | 1015.8 |
| 20260901062034 | 73 | 360 | 1.0 | 2.0 | 0.00 | 0.57 | 0.00 | 95 | 1015.8 |
| 20260901061552 | 73 | 5 | 1.0 | 2.0 | 0.00 | 0.57 | 0.00 | 96 | 1016.0 |
| 20260901061034 | 73 | 5 | 0.0 | 2.0 | 0.00 | 0.57 | 0.00 | 96 | 1016.0 |
| 20260901060535 | 73 | 5 | 1.0 | 3.0 | 0.00 | 0.57 | 0.00 | 95 | 1016.1 |
| 20260901060110 | 72 | 5 | 2.0 | 3.0 | 0.00 | 0.57 | 0.00 | 95 | 1016.0 |
| 20260901055534 | 72 | 5 | 1.0 | 1.0 | 0.00 | 0.57 | 0.00 | 95 | 1016.2 |
| 20260901055033 | 72 | 5 | 1.0 | 1.0 | 0.00 | 0.57 | 0.00 | 95 | 1016.1 |
| 20260901054559 | 72 | 5 | 1.0 | 2.0 | 0.00 | 0.57 | 0.00 | 95 | 1016.1 |
| 20260901054036 | 72 | 5 | 1.0 | 2.0 | 0.00 | 0.57 | 0.00 | 95 | 1016.1 |
| 20260901053538 | 72 | 5 | 0.0 | 2.0 | 0.00 | 0.57 | 0.00 | 95 | 1016.2 |
| 20260901053119 | 72 | 0 | 0.0 | 0.0 | 0.00 | 0.57 | 0.00 | 95 | 1016.4 |